This demonstration page uses our WeatherBlox Daily Observations layout. Learn more.

Left ArrowRight Arrow

39.01783, -85.05884

Hourly Observations for December 24, 2017

Temp ( °F °C ) Dew Point ( °F °C ) Humidity (%) Winds ( mph kmh ) Pressure ( in mb ) Visibility ( mi km ) Precip ( " mm )
12:52 am 00:52 Cloudy 33 0.6 29 -1.7 85 85 N 6 9 30.21 1023 10 16 0.00 0.00
1:52 am 01:52 Cloudy 33 0.6 29 -1.7 85 85 N 6 9 30.19 1022 10 16 0.00 0.00
2:52 am 02:52 Cloudy 33 0.6 28 -2.2 82 82 N 6 9 30.20 1023 10 16 0.00 0.00
3:52 am 03:52 Cloudy 33 0.6 27 -2.8 78 78 N 6 9 30.21 1023 10 16 0.00 0.00
4:52 am 04:52 Cloudy 33 0.6 27 -2.8 78 78 NNE 6 9 30.19 1022 10 16 0.00 0.00
5:52 am 05:52 Cloudy 32 0 28 -2.2 85 85 E 7 11 30.18 1022 10 16 0.00 0.00
6:52 am 06:52 Cloudy 32 0 28 -2.2 85 85 E 6 9 30.18 1022 10 16 0.00 0.00
7:29 am 07:29 Mostly Cloudy 32 0 28 -2.2 85 85 ENE 8 13 30.21 1023 10 16 0.00 0.00
7:52 am 07:52 Mostly Cloudy 31 -0.6 28 -2.2 89 89 E 7 11 30.15 1021 9 14 0.00 0.00
8:52 am 08:52 Mostly Cloudy with Mist and Fog 32 0 30 -1.1 92 92 E 10 17 30.11 1020 6 10 0.00 0.00
9:52 am 09:52 Mostly Cloudy 34 1.1 30 -1.1 85 85 SE 13 20 30.10 1019 8 13 0.00 0.00
10:52 am 10:52 Mostly Cloudy 35 1.7 28 -2.2 76 76 SSE 8 13 30.10 1019 10 16 0.00 0.00
11:52 am 11:52 Cloudy 35 1.7 28 -2.2 76 76 SSE 8 13 30.06 1018 10 16 0.00 0.00
12:52 pm 12:52 Cloudy 35 1.7 29 -1.7 78 78 SE 5 7 30.01 1016 10 16 0.00 0.00
1:52 pm 13:52 Cloudy with Light Snow 35 1.7 32 0 89 89 S 6 9 29.96 1015 4 6 0.00 0.03
2:04 pm 14:04 Cloudy with Mist and Fog 34 1.1 32 0 92 92 SSE 7 11 29.97 1015 2 3 0.00 0.03
2:29 pm 14:29 Cloudy with Mist and Fog 34 1.1 32 0 92 92 SSW 5 7 29.97 1015 3 5 0.00 0.03
2:52 pm 14:52 Cloudy with Mist and Fog 34 1.1 33 0.6 97 97 WSW 5 7 29.94 1014 1 2 0.00 0.03
3:23 pm 15:23 Cloudy with Mist and Fog 33 0.6 33 0.6 100 100 SSW 5 7 29.94 1014 2 3 0.01 0.25
3:52 pm 15:52 Cloudy with Mist and Fog 33 0.6 33 0.6 100 100 SSW 3 6 29.92 1013 2 3 0.01 0.25
4:17 pm 16:17 Cloudy with Mist and Fog 33 0.6 33 0.6 100 100 SSW 6 9 29.94 1014 2 2 0.00 0.00
4:52 pm 16:52 Cloudy with Light Snow 33 0.6 33 0.6 100 100 SW 5 7 29.91 1013 1 1 0.02 0.51
5:06 pm 17:06 Cloudy with Snow 33 0.6 33 0.6 100 100 SW 5 7 29.94 1014 1 1 0.01 0.25
5:20 pm 17:20 Cloudy with Snow 33 0.6 33 0.6 100 100 WSW 3 6 29.94 1014 1 1 0.02 0.51
5:52 pm 17:52 Cloudy with Light Snow 33 0.6 33 0.6 100 100 W 9 15 29.92 1013 1 2 0.03 0.76
6:27 pm 18:27 Cloudy with Light Snow 32 0 32 0 100 100 W 12 19 29.94 1014 2 3 0.01 0.25
6:52 pm 18:52 Cloudy with Light Snow 32 0 32 0 100 100 W 12 19 29.94 1014 2 3 0.02 0.51
7:10 pm 19:10 Cloudy with Light Snow 32 0 32 0 100 100 W 14 22 29.97 1015 1 2 0.00 0.03
7:17 pm 19:17 Cloudy with Light Snow 32 0 32 0 100 100 W 15 24 29.97 1015 3 5 0.00 0.03
7:37 pm 19:37 Windy with Snow Likely 30 -1.1 27 -2.8 88 88 WNW 30 48 30.00 1016 3 5 0.00 0.03
7:52 pm 19:52 Windy with Snow Likely 30 -1.1 27 -2.8 88 88 W 23 37 29.99 1016 6 10 0.00 0.03
8:07 pm 20:07 Windy with Snow Likely 29 -1.7 27 -2.8 92 92 W 26 43 30.03 1017 5 8 0.00 0.03
8:52 pm 20:52 Windy with Snow Likely 27 -2.8 24 -4.4 89 89 WNW 28 44 30.03 1017 5 8 0.00 0.03
9:52 pm 21:52 Windy with Snow Likely 24 -4.4 18 -7.8 77 77 W 30 48 30.09 1019 6 10 0.00 0.03
10:38 pm 22:38 Cloudy 21 -6.1 15 -9.4 78 78 W 25 41 30.18 1022 10 16 0.00 0.03
10:52 pm 22:52 Cloudy 22 -5.6 15 -9.4 75 75 WNW 26 43 30.14 1021 10 16 0.00 0.03
11:52 pm 23:52 Windy with Snow Likely 21 -6.1 17 -8.3 85 85 W 25 41 30.16 1021 4 6 0.00 0.03

Powered by AerisWeather